Weather History for Jaffrey, NH

Change the Weather History Date:

Monday, December 31, 2012

  Actual Average Record
Temperature  
Mean Temperature 20 °F -  
Max Temperature 28 °F 29 °F 46 °F (2010)
Min Temperature 12 °F 14 °F -2 °F (1996)
Degree Days  
Heating Degree Days 45    
Moisture  
Dew Point 16 °F    
Average Humidity 73    
Maximum Humidity 92    
Minimum Humidity 57    
Precipitation  
Precipitation 0.00 in - - ()
Sea Level Pressure  
Sea Level Pressure 29.93 in    
Wind  
Wind Speed 5 mph (SW)    
Max Wind Speed 12 mph    
Max Gust Speed 26 mph    
Visibility 10 miles    
Events      
Averages and records for this station are not official NWS values.
T = Trace of Precipitation, MM = Missing Value Source: NWS Daily Summary

Daily Weather History Graph

Daily Weather History Graph

Search for Another Location

Airport:

Trip Planner

Search our weather history database for the weather conditions in past years. The results will help you decide how hot, cold, wet, or windy it might be!

Date:

Astronomy

Dec. 31, 2012 Rise Set
Actual Time 7:18 AM EST 4:24 PM EST
Civil Twilight 6:46 AM EST 4:56 PM EST
Nautical Twilight 6:10 AM EST 5:31 PM EST
Astronomical Twilight 5:36 AM EST 6:06 PM EST
Moon 7:57 PM EST (12/31) 8:54 AM EST (12/31)
Length of Visible Light 10h 09m
Length of Day
9h 05m
Waning Gibbous, 90% of the Moon is Illuminated
Dec 31
Waning Gibbous
Jan 4
Last Quarter
Jan 11
New
Jan 18
First Quarter
Jan 26
Full

Hourly Weather History & Observations

Time (EST) Temp. Windchill Dew Point Humidity Pressure Visibility Wind Dir Wind Speed Gust Speed Precip Events Conditions
12:52 AM 18.0 °F 7.7 °F 5.0 °F 57% 29.99 in 10.0 mi North 8.1 mph 26.5 mph 0.00 in   Clear
1:52 AM 17.1 °F 10.0 °F 6.1 °F 62% 30.00 in 10.0 mi NE 4.6 mph - N/A   Clear
2:52 AM 12.9 °F 6.9 °F 5.0 °F 71% 30.01 in 10.0 mi Variable 3.5 mph - N/A   Clear
3:52 AM 14.0 °F 6.5 °F 7.0 °F 74% 30.01 in 10.0 mi SE 4.6 mph - N/A   Overcast
4:52 AM 14.0 °F - 8.1 °F 77% 29.99 in 10.0 mi Calm Calm - N/A   Mostly Cloudy
6:52 AM 21.0 °F 11.4 °F 12.0 °F 68% 30.02 in 10.0 mi West 8.1 mph - N/A   Scattered Clouds
7:52 AM 23.0 °F 11.7 °F 12.9 °F 65% 30.02 in 10.0 mi WNW 11.5 mph 23.0 mph N/A   Overcast
8:41 AM 21.2 °F - 12.2 °F 68% 29.95 in 10.0 mi Calm Calm - N/A   Overcast
8:52 AM 23.0 °F 18.4 °F 12.9 °F 65% 30.02 in 10.0 mi West 3.5 mph - N/A   Overcast
9:38 AM 24.8 °F 19.1 °F 15.8 °F 69% 29.96 in 10.0 mi West 4.6 mph - N/A   Overcast
9:52 AM 24.1 °F 19.7 °F 16.0 °F 71% 30.02 in 10.0 mi SW 3.5 mph - N/A   Overcast
10:52 AM 27.0 °F 21.6 °F 19.9 °F 75% 30.01 in 10.0 mi WSW 4.6 mph - N/A   Overcast
11:52 AM 27.0 °F 19.5 °F 19.9 °F 75% 29.97 in 10.0 mi Variable 6.9 mph - N/A   Overcast
12:52 PM 28.0 °F 24.2 °F 21.0 °F 75% 29.94 in 10.0 mi SSW 3.5 mph - N/A   Overcast
1:52 PM 28.0 °F 21.7 °F 21.0 °F 75% 29.91 in 10.0 mi SSW 5.8 mph - N/A   Overcast
2:52 PM 28.0 °F 21.7 °F 21.0 °F 75% 29.91 in 10.0 mi Variable 5.8 mph - N/A   Overcast
3:52 PM 28.9 °F 21.9 °F 21.0 °F 72% 29.91 in 10.0 mi SSW 6.9 mph - N/A   Overcast
4:34 PM 26.6 °F 22.6 °F 19.4 °F 74% 29.83 in 10.0 mi Variable 3.5 mph - N/A   Scattered Clouds
4:52 PM 27.0 °F 21.6 °F 19.9 °F 75% 29.90 in 10.0 mi South 4.6 mph - N/A   Clear
5:52 PM 21.0 °F 16.2 °F 19.0 °F 92% 29.87 in 10.0 mi SSW 3.5 mph - N/A   Clear
6:52 PM 24.1 °F 16.0 °F 19.0 °F 81% 29.86 in 10.0 mi South 6.9 mph - N/A   Clear
7:52 PM 21.0 °F 16.2 °F 18.0 °F 88% 29.86 in 10.0 mi South 3.5 mph - N/A   Clear
8:52 PM 24.1 °F - 18.0 °F 77% 29.82 in 10.0 mi Calm Calm - N/A   Clear
9:52 PM 26.1 °F - 19.0 °F 75% 29.81 in 10.0 mi Calm Calm - N/A   Overcast
10:52 PM 27.0 °F - 19.9 °F 75% 29.77 in 10.0 mi Calm Calm - N/A   Overcast
11:52 PM 27.0 °F 20.5 °F 19.9 °F 75% 29.75 in 10.0 mi Variable 5.8 mph - N/A   Overcast